CW8916 Weather Reports


time (UTC)temp
C
wind
direction
speed
KPH
gust
KPH
rain 1hr
cm
rain 24hr
cm
rain mn
cm
humidity
%
barometer
mb
20260906233644 26 203 9.7 16.1 0.00 0.00 0.00 30 1013.6
20260906232614 26 140 8.0 16.1 0.00 0.00 0.00 30 1013.6
20260906231626 26 213 8.0 24.1 0.00 0.00 0.00 30 1013.5
20260906230621 26 207 16.1 22.5 0.00 0.00 0.00 29 1013.9
20260906225644 27 249 11.3 22.5 0.00 0.00 0.00 29 1014.0
20260906224615 26 198 14.5 30.6 0.00 0.00 0.00 29 1014.1
20260906223626 27 216 14.5 22.5 0.00 0.00 0.00 28 1014.1
20260906222622 27 196 17.7 27.4 0.00 0.00 0.00 28 1014.2
20260906221612 27 173 12.9 29.0 0.00 0.00 0.00 28 1014.2
20260906220623 27 281 11.3 30.6 0.00 0.00 0.00 28 1014.3
20260906215647 27 228 16.1 29.0 0.00 0.00 0.00 28 1014.2
20260906214621 27 212 17.7 32.2 0.00 0.00 0.00 29 1014.4
20260906213612 27 207 20.9 37.0 0.00 0.00 0.00 28 1014.2
20260906212623 27 257 17.7 27.4 0.00 0.00 0.00 29 1014.2
20260906211618 27 193 11.3 35.4 0.00 0.00 0.00 28 1014.4
20260906210628 27 202 22.5 32.2 0.00 0.00 0.00 29 1014.4
20260906205630 27 244 24.1 38.6 0.00 0.00 0.00 29 1014.5
20260906204621 27 252 24.1 37.0 0.00 0.00 0.00 28 1014.5
20260906203615 27 154 27.4 40.2 0.00 0.00 0.00 27 1014.7
20260906202625 27 189 27.4 40.2 0.00 0.00 0.00 27 1014.6
20260906201614 27 185 17.7 35.4 0.00 0.00 0.00 26 1014.9
20260906200624 27 212 16.1 32.2 0.00 0.00 0.00 27 1015.2
20260906195612 26 214 17.7 37.0 0.00 0.00 0.00 28 1015.4
20260906194623 26 209 20.9 35.4 0.00 0.00 0.00 27 1015.5
20260906193634 26 248 22.5 32.2 0.00 0.00 0.00 27 1015.8
20260906192624 26 219 17.7 35.4 0.00 0.00 0.00 27 1015.5
20260906191619 26 213 24.1 38.6 0.00 0.00 0.00 27 1015.5
20260906190630 26 209 12.9 29.0 0.00 0.00 0.00 27 1015.7
20260906185634 27 209 19.3 41.8 0.00 0.00 0.00 27 1015.7
20260906184646 26 210 22.5 37.0 0.00 0.00 0.00 26 1015.9
20260906183621 26 175 22.5 40.2 0.00 0.00 0.00 27 1016.0
20260906182613 26 265 22.5 32.2 0.00 0.00 0.00 27 1015.9
20260906181623 26 159 24.1 33.8 0.00 0.00 0.00 27 1016.3
20260906180623 26 242 22.5 33.8 0.00 0.00 0.00 27 1016.3
20260906175626 26 244 16.1 41.8 0.00 0.00 0.00 28 1016.6
20260906174620 26 207 24.1 40.2 0.00 0.00 0.00 27 1016.8
20260906173631 25 252 24.1 41.8 0.00 0.00 0.00 26 1016.9
20260906172621 25 206 35.4 41.8 0.00 0.00 0.00 27 1017.3
20260906171614 25 200 24.1 37.0 0.00 0.00 0.00 25 1017.3
20260906170624 25 189 19.3 40.2 0.00 0.00 0.00 27 1017.5
20260906165625 25 221 25.7 46.7 0.00 0.00 0.00 26 1017.3
20260906164636 25 173 20.9 35.4 0.00 0.00 0.00 27 1017.3
20260906163630 25 210 20.9 32.2 0.00 0.00 0.00 28 1017.3
20260906162620 25 205 27.4 38.6 0.00 0.00 0.00 28 1017.3
20260906161631 25 190 16.1 40.2 0.00 0.00 0.00 29 1017.3
20260906160622 25 216 27.4 38.6 0.00 0.00 0.00 29 1017.4
20260906155629 24 204 25.7 35.4 0.00 0.00 0.00 30 1017.5
20260906154621 24 178 20.9 33.8 0.00 0.00 0.00 29 1017.3
20260906153613 24 211 20.9 32.2 0.00 0.00 0.00 29 1017.4
20260906152624 24 174 25.7 35.4 0.00 0.00 0.00 29 1017.4
20260906151619 24 221 20.9 40.2 0.00 0.00 0.00 29 1017.5
20260906150630 23 178 16.1 29.0 0.00 0.00 0.00 32 1017.3
20260906145614 19 9 4.8 8.0 0.00 0.00 0.00 45 1017.5
20260906144629 18 5 1.6 6.4 0.00 0.00 0.00 47 1017.3
20260906143620 17 350 3.2 8.0 0.00 0.00 0.00 46 1017.4
20260906142631 17 285 0.0 4.8 0.00 0.00 0.00 45 1017.3
20260906141622 16 279 4.8 6.4 0.00 0.00 0.00 46 1017.2
20260906140637 16 319 1.6 4.8 0.00 0.00 0.00 44 1017.2
20260906135619 16 293 3.2 4.8 0.00 0.00 0.00 42 1017.0
20260906134629 18 340 1.6 9.7 0.00 0.00 0.00 39 1016.9
20260906133619 17 184 1.6 6.4 0.00 0.00 0.00 39 1016.9
20260906132653 15 129 0.0 4.8 0.00 0.00 0.00 43 1016.8
20260906131644 15 299 0.0 6.4 0.00 0.00 0.00 43 1016.7
20260906130613 16 293 0.0 4.8 0.00 0.00 0.00 41 1016.6
20260906125616 18 329 3.2 11.3 0.00 0.00 0.00 36 1016.6
20260906124631 20 207 9.7 19.3 0.00 0.00 0.00 30 1016.6
20260906123643 20 194 6.4 16.1 0.00 0.00 0.00 30 1016.5
20260906122614 20 207 11.3 17.7 0.00 0.00 0.00 30 1016.4
20260906121624 19 167 9.7 17.7 0.00 0.00 0.00 32 1016.4
20260906120617 16 226 1.6 4.8 0.00 0.00 0.00 39 1016.6
20260906115625 16 75 1.6 4.8 0.00 0.00 0.00 39 1016.6
20260906114616 16 302 1.6 4.8 0.00 0.00 0.00 39 1016.4
20260906113628 16 168 1.6 4.8 0.00 0.00 0.00 40 1016.6
20260906112640 16 244 1.6 6.4 0.00 0.00 0.00 40 1016.5
20260906111614 16 336 0.0 3.2 0.00 0.00 0.00 39 1016.6
20260906110626 16 311 1.6 4.8 0.00 0.00 0.00 39 1016.5
20260906105629 16 292 0.0 4.8 0.00 0.00 0.00 40 1016.6
20260906104623 16 306 1.6 8.0 0.00 0.00 0.00 39 1016.5
20260906103615 19 317 4.8 9.7 0.00 0.00 0.00 33 1016.4
20260906102626 22 204 3.2 16.1 0.00 0.00 0.00 25 1016.3
20260906101637 22 169 8.0 12.9 0.00 0.00 0.00 24 1016.3
20260906100612 22 207 4.8 12.9 0.00 0.00 0.00 24 1016.3
20260906095615 22 178 8.0 16.1 0.00 0.00 0.00 24 1016.2
20260906094626 22 180 6.4 16.1 0.00 0.00 0.00 24 1016.2
20260906093615 22 183 8.0 12.9 0.00 0.00 0.00 25 1016.3
20260906092629 22 191 8.0 14.5 0.00 0.00 0.00 25 1016.2
20260906091619 21 157 8.0 17.7 0.00 0.00 0.00 25 1016.0
20260906090628 21 209 12.9 17.7 0.00 0.00 0.00 25 1016.0
20260906085651 21 163 8.0 16.1 0.00 0.00 0.00 26 1016.0
20260906084645 21 186 14.5 17.7 0.00 0.00 0.00 26 1015.8
20260906083635 22 207 9.7 16.1 0.00 0.00 0.00 24 1015.9
20260906082623 23 180 9.7 14.5 0.00 0.00 0.00 23 1015.9
20260906081614 23 183 9.7 14.5 0.00 0.00 0.00 21 1015.9
20260906080629 23 165 8.0 16.1 0.00 0.00 0.00 21 1016.0
20260906075631 23 145 11.3 16.1 0.00 0.00 0.00 21 1016.0
20260906074640 24 202 11.3 19.3 0.00 0.00 0.00 21 1016.0
20260906073630 23 163 9.7 16.1 0.00 0.00 0.00 21 1015.9
20260906072623 23 163 8.0 16.1 0.00 0.00 0.00 21 1015.9
20260906071614 24 185 8.0 17.7 0.00 0.00 0.00 21 1015.9
20260906070624 24 171 8.0 19.3 0.00 0.00 0.00 20 1016.0
20260906065628 23 187 9.7 16.1 0.00 0.00 0.00 21 1015.9
20260906064623 23 207 6.4 14.5 0.00 0.00 0.00 21 1015.8
20260906063614 23 161 8.0 11.3 0.00 0.00 0.00 21 1015.9
20260906062624 23 169 6.4 9.7 0.00 0.00 0.00 22 1015.7
20260906061653 23 154 6.4 11.3 0.00 0.00 0.00 23 1015.7
20260906060630 22 194 6.4 9.7 0.00 0.00 0.00 25 1015.7
20260906055617 21 190 4.8 11.3 0.00 0.00 0.00 27 1015.7
20260906054646 19 186 3.2 11.3 0.00 0.00 0.00 33 1015.6
20260906053638 19 214 0.0 8.0 0.00 0.00 0.00 36 1015.6
20260906052627 19 267 1.6 4.8 0.00 0.00 0.00 34 1015.6
20260906051617 19 263 3.2 16.1 0.00 0.00 0.00 34 1015.8
20260906050630 21 210 12.9 19.3 0.00 0.00 0.00 30 1015.5
20260906045612 21 212 14.5 19.3 0.00 0.00 0.00 30 1015.6
20260906044622 21 205 11.3 17.7 0.00 0.00 0.00 30 1015.5
20260906043612 21 207 9.7 14.5 0.00 0.00 0.00 29 1015.6
20260906042625 21 188 9.7 12.9 0.00 0.00 0.00 29 1015.5
20260906041614 21 185 6.4 12.9 0.00 0.00 0.00 30 1015.5
20260906040624 21 171 8.0 12.9 0.00 0.00 0.00 29 1015.5
20260906035626 21 207 0.0 11.3 0.00 0.00 0.00 29 1015.4
20260906034620 21 170 8.0 12.9 0.00 0.00 0.00 29 1015.5
20260906033630 21 225 8.0 16.1 0.00 0.00 0.00 30 1015.3
20260906032620 21 178 12.9 17.7 0.00 0.00 0.00 30 1015.3
20260906031616 21 187 11.3 17.7 0.00 0.00 0.00 29 1015.4
20260906030624 21 175 9.7 14.5 0.00 0.00 0.00 29 1015.2
20260906025626 21 174 9.7 14.5 0.00 0.00 0.00 29 1015.2
20260906024616 21 171 9.7 14.5 0.00 0.00 0.00 30 1015.0
20260906023625 21 209 9.7 14.5 0.00 0.00 0.00 31 1015.1
20260906022620 21 168 8.0 12.9 0.00 0.00 0.00 31 1015.0
20260906021631 21 179 9.7 12.9 0.00 0.00 0.00 31 1015.0
20260906020621 22 94 8.0 12.9 0.00 0.00 0.00 30 1015.0
20260906015626 23 177 6.4 12.9 0.00 0.00 0.00 27 1014.9
20260906014617 23 189 9.7 14.5 0.00 0.00 0.00 27 1015.1
20260906013626 23 200 9.7 12.9 0.00 0.00 0.00 27 1015.1
20260906012638 23 188 8.0 12.9 0.00 0.00 0.00 27 1015.1
20260906011648 25 205 9.7 12.9 0.00 0.00 0.00 26 1015.2
20260906010621 27 188 6.4 8.0 0.00 0.00 0.00 22 1015.4
20260906005622 27 207 6.4 11.3 0.00 0.00 0.00 19 1015.4
20260906004612 28 216 8.0 16.1 0.00 0.00 0.00 18 1015.3
20260906003626 28 206 12.9 19.3 0.00 0.00 0.00 18 1015.3
20260906002614 28 222 9.7 16.1 0.00 0.00 0.00 19 1015.3
20260906001623 28 234 12.9 19.3 0.00 0.00 0.00 18 1015.4
20260906000616 28 236 12.9 22.5 0.00 0.00 0.00 18 1015.3
20260905235617 28 234 16.1 25.7 0.00 0.00 0.00 18 1015.3
20260905234631 28 240 11.3 20.9 0.00 0.00 0.00 17 1015.3